FW9031 Weather Reports


time (UTC)temp
C
wind
direction
speed
KPH
gust
KPH
rain 1hr
cm
rain 24hr
cm
rain mn
cm
humidity
%
barometer
mb
20260505200104 21 178 8.0 29.0 0.00 0.00 0.00 56 1004.7
20260505194603 21 178 6.4 22.5 0.00 0.00 0.00 55 1004.7
20260505193054 21 178 9.7 33.8 0.00 0.00 0.00 56 1004.8
20260505191553 21 178 6.4 29.0 0.00 0.00 0.00 55 1005.1
20260505184556 22 178 8.0 22.5 0.00 0.00 0.00 55 1005.2
20260505183056 21 178 8.0 25.7 0.00 0.00 0.00 56 1005.4
20260505181555 21 178 8.0 27.4 0.00 0.00 0.00 55 1005.7
20260505174558 21 178 9.7 24.1 0.00 0.05 0.00 54 1005.9
20260505173053 21 178 6.4 24.1 0.00 0.05 0.00 56 1006.0
20260505171552 21 178 6.4 19.3 0.00 0.05 0.00 57 1006.4
20260505170052 21 178 6.4 17.7 0.00 0.05 0.00 55 1006.8
20260505164607 20 178 8.0 19.3 0.00 0.05 0.00 57 1007.1
20260505163053 19 178 6.4 17.7 0.00 0.05 0.00 60 1007.2
20260505161551 18 178 8.0 19.3 0.00 0.05 0.00 61 1007.4
20260505153053 19 178 4.8 19.3 0.00 0.05 0.00 58 1008.2
20260505151550 20 178 8.0 17.7 0.00 0.05 0.00 58 1008.0
20260505140112 18 178 6.4 19.3 0.00 0.05 0.00 60 1008.0
20260505124559 16 178 4.8 14.5 0.00 0.05 0.00 63 1008.4
20260505123053 16 178 4.8 16.1 0.00 0.05 0.00 64 1008.5
20260505121554 15 178 6.4 14.5 0.00 0.05 0.00 66 1008.5
20260505120110 15 178 4.8 16.1 0.00 0.05 0.00 69 1008.7
20260505114553 13 178 3.2 14.5 0.00 0.05 0.00 72 1008.8
20260505113056 12 178 1.6 8.0 0.00 0.05 0.00 76 1008.6
20260505111553 11 178 1.6 8.0 0.00 0.05 0.00 80 1008.8
20260505110106 10 178 0.0 4.8 0.00 0.05 0.00 82 1008.8
20260505101551 8 0 0.0 4.8 0.00 0.05 0.00 86 1008.6
20260505100056 7 0 0.0 0.0 0.00 0.05 0.00 88 1008.6
20260505094600 7 0 0.0 1.6 0.00 0.05 0.00 88 1008.7
20260505093053 7 0 0.0 0.0 0.00 0.05 0.00 88 1008.5
20260505091606 7 0 0.0 0.0 0.00 0.05 0.00 88 1008.6
20260505090054 7 0 0.0 0.0 0.00 0.05 0.00 87 1008.6
20260505084553 7 0 0.0 0.0 0.00 0.05 0.00 86 1008.8
20260505083053 7 0 0.0 0.0 0.00 0.05 0.00 85 1008.8
20260505081553 7 0 0.0 1.6 0.00 0.05 0.00 86 1008.7
20260505080100 7 0 0.0 1.6 0.00 0.05 0.00 86 1008.8
20260505074554 8 0 0.0 0.0 0.00 0.05 0.00 84 1008.8
20260505073055 8 0 0.0 0.0 0.00 0.05 0.00 83 1008.8
20260505071555 8 0 0.0 0.0 0.00 0.05 0.00 83 1008.8
20260505070057 8 0 0.0 0.0 0.00 0.05 0.00 82 1008.7
20260505064554 8 0 0.0 1.6 0.00 0.05 0.00 81 1008.6
20260505063111 8 0 0.0 1.6 0.00 0.05 0.00 81 1008.6
20260505061556 8 0 0.0 0.0 0.00 0.05 0.00 81 1008.6
20260505060103 8 0 0.0 0.0 0.00 0.05 0.00 80 1008.6
20260505054607 8 0 0.0 0.0 0.00 0.05 0.00 81 1008.7
20260505053100 8 0 0.0 0.0 0.00 0.05 0.00 81 1008.7
20260505051551 8 0 0.0 0.0 0.00 0.05 0.00 82 1008.5
20260505041557 8 0 0.0 1.6 0.00 0.05 0.00 83 1008.1
20260505040056 8 0 0.0 0.0 0.00 0.05 0.00 83 1008.0
20260505034556 8 0 0.0 0.0 0.00 0.05 0.05 82 1008.0
20260505033052 8 0 0.0 0.0 0.00 0.05 0.05 81 1007.9
20260505031603 9 0 0.0 0.0 0.00 0.05 0.05 80 1007.9
20260505030109 10 0 0.0 1.6 0.00 0.05 0.05 78 1007.9
20260505024605 10 178 0.0 8.0 0.00 0.05 0.05 76 1007.9
20260505023056 10 0 1.6 4.8 0.00 0.05 0.05 75 1008.0
20260505021558 11 178 3.2 9.7 0.00 0.05 0.05 74 1007.9
20260505020054 11 0 0.0 3.2 0.00 0.05 0.05 72 1007.9
20260505014609 12 178 1.6 3.2 0.00 0.05 0.05 72 1007.8
20260505013053 12 0 0.0 0.0 0.00 0.05 0.05 70 1007.6
20260505011604 12 0 0.0 0.0 0.00 0.05 0.05 69 1007.7
20260505010053 12 0 0.0 0.0 0.00 0.05 0.05 68 1007.5
20260505004553 13 0 0.0 3.2 0.00 0.05 0.05 68 1007.4
20260505003053 13 0 0.0 0.0 0.00 0.05 0.05 67 1007.0
20260505001554 13 0 0.0 0.0 0.00 0.05 0.05 64 1006.8
20260505000107 13 0 0.0 3.2 0.00 0.05 0.05 64 1006.6
20260504234555 15 0 0.0 0.0 0.00 0.05 0.05 59 1006.4
20260504233107 15 0 0.0 0.0 0.00 0.05 0.05 57 1006.3
20260504231552 15 0 0.0 0.0 0.00 0.05 0.05 56 1006.1
20260504230053 16 0 0.0 0.0 0.00 0.05 0.05 55 1006.0
20260504224558 16 0 0.0 0.0 0.00 0.05 0.05 53 1005.8
20260504223134 17 0 0.0 1.6 0.00 0.05 0.05 50 1005.8
20260504221554 17 0 0.0 1.6 0.00 0.05 0.05 51 1005.9
20260504220058 17 0 0.0 1.6 0.00 0.05 0.05 50 1005.9
20260504214557 17 178 0.0 3.2 0.00 0.05 0.05 50 1006.0
20260504213102 17 0 1.6 4.8 0.00 0.05 0.05 51 1006.0
20260504211554 17 178 0.0 9.7 0.00 0.05 0.05 50 1005.9
20260504210059 18 178 1.6 11.3 0.00 0.05 0.05 50 1005.6
20260504204554 18 178 1.6 14.5 0.00 0.05 0.05 49 1005.7
20260504203110 18 178 3.2 12.9 0.00 0.05 0.05 47 1005.7
20260504201558 18 178 3.2 11.3 0.00 0.05 0.05 50 1005.7